Location: Beetenbrück
(52.8113°N, 9.5946°E)
Time: 21:22:10
(UTC+00:00)

ATLAS 3B R/B - Pass Details

Date: 14 April 2026
Orbit: 937 x 1257 km, 63.8° (Epoch: 12 May)

Event Time Altitude Azimuth Distance (km) Brightness Sun altitude
Rises 21:36:52 0° 287° (WNW) 4,192 6.5 -23.6°
Reaches altitude 10° 21:39:57 10° 296° (WNW) 3,239 5.9 -23.8°
Maximum altitude 21:47:11 37° 2° (N) 1,850 4.4 -24.3°
Drops below altitude 10° 21:54:18 10° 68° (ENE) 3,192 5.2 -24.8°
Sets 21:57:19 0° 77° (ENE) 4,124 5.7 -25.0°
